Weather History for KABQ - March, 2013

Change the Weather History Date:

Sunday, March 31, 2013

  Actual Average Record
Temperature  
Mean Temperature 61 °F 51 °F  
Max Temperature 71 °F 64 °F 81 °F (1946)
Min Temperature 50 °F 39 °F 20 °F (1938)
Degree Days  
Heating Degree Days 4 14  
Month to date heating degree days 407 525  
Since 1 July heating degree days 3605 3827  
Cooling Degree Days 0 0  
Month to date cooling degree days 0 0  
Year to date cooling degree days 0 0  
Growing Degree Days 10 (Base 50)    
Moisture  
Dew Point 26 °F    
Average Humidity 34    
Maximum Humidity 50    
Minimum Humidity 17    
Precipitation  
Precipitation 0.00 in 0.02 in 0.69 in (1988)
Month to date precipitation 0.17 0.57  
Year to date precipitation 0.52 1.43  
Snow  
Snow 0.00 in - - ()
Month to date snowfall T  
Since 1 July snowfall 3.5  
Snow Depth 0.00 in    
Sea Level Pressure  
Sea Level Pressure 29.92 in    
Wind  
Wind Speed 7 mph (SE)    
Max Wind Speed 24 mph    
Max Gust Speed 30 mph    
Visibility 10 miles    
Events      
T = Trace of Precipitation, MM = Missing Value Source: NWS Daily Summary

Daily Weather History Graph

Daily Weather History Graph

Search for Another Location

Airport or City:

Trip Planner

Search our weather history database for the weather conditions in past years. The results will help you decide how hot, cold, wet, or windy it might be!

Date:

Astronomy

Mar. 31, 2013 Rise Set
Actual Time 6:54 AM MDT 7:27 PM MDT
Civil Twilight 6:28 AM MDT 7:52 PM MDT
Nautical Twilight 5:58 AM MDT 8:22 PM MDT
Astronomical Twilight 5:28 AM MDT 8:53 PM MDT
Moon No Moon Rise 9:54 AM MDT (3/31)
Length of Visible Light 13h 23m
Length of Day
12h 33m
Waning Gibbous, 77% of the Moon is Illuminated
Mar 31
Waning Gibbous
Apr 2
Last Quarter
Apr 10
New
Apr 18
First Quarter
Apr 25
Full

Hourly Weather History & Observations

Time (MDT) Temp. Dew Point Humidity Pressure Visibility Wind Dir Wind Speed Gust Speed Precip Events Conditions
12:52 AM 60.1 °F 25.0 °F 26% 29.92 in 10.0 mi NW 4.6 mph - N/A   Mostly Cloudy
1:52 AM 55.9 °F 23.0 °F 28% 29.93 in 10.0 mi Calm Calm - N/A   Mostly Cloudy
2:52 AM 54.0 °F 23.0 °F 30% 29.93 in 10.0 mi SE 4.6 mph - N/A   Scattered Clouds
3:52 AM 51.1 °F 23.0 °F 33% 29.93 in 10.0 mi Calm Calm - N/A   Mostly Cloudy
4:52 AM 52.0 °F 23.0 °F 32% 29.93 in 10.0 mi SE 5.8 mph - N/A   Overcast
5:52 AM 54.0 °F 28.9 °F 38% 29.94 in 10.0 mi East 16.1 mph - N/A   Mostly Cloudy
6:52 AM 51.1 °F 30.9 °F 46% 29.97 in 10.0 mi East 21.9 mph 28.8 mph N/A   Scattered Clouds
7:52 AM 51.1 °F 33.1 °F 50% 29.99 in 10.0 mi East 18.4 mph 27.6 mph N/A   Scattered Clouds
8:52 AM 54.0 °F 32.0 °F 43% 30.00 in 10.0 mi East 19.6 mph - N/A   Partly Cloudy
9:52 AM 59.0 °F 32.0 °F 36% 29.99 in 10.0 mi ESE 10.4 mph - N/A   Partly Cloudy
10:52 AM 62.1 °F 30.0 °F 30% 29.99 in 10.0 mi WSW 4.6 mph - N/A   Partly Cloudy
11:52 AM 63.0 °F 28.9 °F 28% 29.99 in 10.0 mi WSW 4.6 mph - N/A   Partly Cloudy
12:52 PM 64.9 °F 27.0 °F 24% 29.97 in 10.0 mi Variable 4.6 mph - N/A   Partly Cloudy
1:52 PM 69.1 °F 27.0 °F 21% 29.94 in 10.0 mi NW 5.8 mph - N/A   Partly Cloudy
2:52 PM 69.1 °F 26.1 °F 20% 29.91 in 10.0 mi SW 5.8 mph - N/A   Partly Cloudy
3:52 PM 71.1 °F 25.0 °F 18% 29.88 in 10.0 mi Variable 3.5 mph - N/A   Partly Cloudy
4:52 PM 70.0 °F 25.0 °F 18% 29.86 in 10.0 mi South 4.6 mph - N/A   Scattered Clouds
5:52 PM 70.0 °F 24.1 °F 18% 29.83 in 10.0 mi South 6.9 mph - N/A   Partly Cloudy
6:52 PM 70.0 °F 24.1 °F 18% 29.83 in 10.0 mi South 10.4 mph - N/A   Scattered Clouds
7:52 PM 66.0 °F 23.0 °F 20% 29.85 in 10.0 mi SE 4.6 mph - N/A   Scattered Clouds
8:52 PM 62.1 °F 21.9 °F 21% 29.87 in 10.0 mi ESE 5.8 mph - N/A   Partly Cloudy
9:52 PM 61.0 °F 21.9 °F 22% 29.87 in 10.0 mi SE 6.9 mph - N/A   Partly Cloudy
10:52 PM 59.0 °F 21.9 °F 24% 29.86 in 10.0 mi ESE 4.6 mph - N/A   Partly Cloudy
11:52 PM 59.0 °F 23.0 °F 25% 29.86 in 10.0 mi Calm Calm - N/A   Mostly Cloudy